This demonstration page uses our WeatherBlox Daily Observations layout. Learn more.

Hourly Observations for March 15, 2016

Temp ( °F °C ) Dew Point ( °F °C ) Humidity (%) Winds ( mph kmh ) Pressure ( in mb ) Visibility ( mi km ) Precip ( " mm )
12:15 am 00:15 Cloudy with Mist and Fog 48 9 48 9 100 100 Calm 29.91 1013 5 8.04672 0 0
12:35 am 00:35 Cloudy with Drizzle 48 9 48 9 100 100 Calm 29.91 1013 3 4.828032 0.01 0.254
12:55 am 00:55 Cloudy with Light Drizzle 48 9 48 9 100 100 ENE 5 7 29.88 1012 3 4.828032 0.01 0.254
1:15 am 01:15 Cloudy with Mist and Fog 46 8 46 8 100 100 NE 5 7 29.91 1013 5 8.04672 0 0
1:35 am 01:35 Cloudy with Light Drizzle 46 8 46 8 100 100 NE 3 6 29.91 1013 10 16.09344 0 0
1:55 am 01:55 Cloudy with Light Drizzle 46 8 46 8 100 100 NE 8 13 29.88 1012 7 11.265408 0 0
2:15 am 02:15 Cloudy 46 8 46 8 100 100 ENE 5 7 29.88 1012 7 11.265408 0 0
2:35 am 02:35 Cloudy 46 8 46 8 100 100 Calm 29.88 1012 10 16.09344 0 0
2:55 am 02:55 Cloudy with Light Rain 46 8 46 8 100 100 NE 6 9 29.83 1010 7 11.265408 0 0
3:15 am 03:15 Cloudy with Light Rain 46 8 46 8 100 100 NE 5 7 29.83 1010 7 11.265408 0.01 0.254
3:35 am 03:35 Cloudy with Light Rain 46 8 46 8 100 100 NNE 5 7 29.8 1009 5 8.04672 0.02 0.508
3:55 am 03:55 Cloudy with Light Drizzle 46 8 46 8 100 100 NE 5 7 29.8 1009 5 8.04672 0.02 0.508
4:15 am 04:15 Cloudy 46 8 46 8 100 100 Calm 29.83 1010 7 11.265408 0 0
4:35 am 04:35 Cloudy 46 8 46 8 100 100 N 3 6 29.83 1010 7 11.265408 0 0
4:55 am 04:55 Cloudy with Mist and Fog 46 8 46 8 100 100 N 6 9 29.83 1010 4 6.437376 0 0
5:15 am 05:15 Cloudy with Mist and Fog 45 7 45 7 100 100 N 7 11 29.85 1011 4 6.437376 0 0
5:35 am 05:35 Cloudy with Mist and Fog 45 7 45 7 100 100 NNE 5 7 29.85 1011 3 4.828032 0 0
5:55 am 05:55 Cloudy with Mist and Fog 45 7 45 7 100 100 NNE 5 7 29.85 1011 4 6.437376 0 0
6:15 am 06:15 Cloudy with Mist and Fog 45 7 45 7 100 100 Calm 29.85 1011 3 4.828032 0 0
6:35 am 06:35 Cloudy with Mist and Fog 45 7 45 7 100 100 Calm 29.85 1011 3 4.828032 0 0
6:55 am 06:55 Cloudy with Mist and Fog 45 7 45 7 100 100 NNE 5 7 29.85 1011 3 4.828032 0 0
7:15 am 07:15 Cloudy with Mist and Fog 45 7 45 7 100 100 Calm 29.85 1011 3 4.828032 0 0
7:35 am 07:35 Cloudy with Mist and Fog 45 7 45 7 100 100 N 3 6 29.85 1011 3 4.828032 0 0
7:55 am 07:55 Cloudy with Mist and Fog 45 7 45 7 100 100 N 3 6 29.85 1011 2.5 4.02336 0 0
8:15 am 08:15 Cloudy with Mist and Fog 45 7 45 7 100 100 Calm 29.85 1011 2 3.218688 0 0
8:35 am 08:35 Cloudy with Mist and Fog 46 8 46 8 100 100 N 3 6 29.83 1010 2.5 4.02336 0 0
8:55 am 08:55 Cloudy with Mist and Fog 46 8 46 8 100 100 N 3 6 29.83 1010 3 4.828032 0 0
9:15 am 09:15 Cloudy with Mist and Fog 46 8 46 8 100 100 N 3 6 29.88 1012 3 4.828032 0 0
9:35 am 09:35 Cloudy with Mist and Fog 46 8 46 8 100 100 NNW 5 7 29.88 1012 3 4.828032 0 0
9:55 am 09:55 Cloudy with Mist and Fog 46 8 46 8 100 100 Calm 29.88 1012 4 6.437376 0 0
10:15 am 10:15 Cloudy with Mist and Fog 48 9 48 9 100 100 NNW 3 6 29.85 1011 5 8.04672 0 0
10:35 am 10:35 Cloudy with Mist and Fog 50 10 48 9 94 94 Calm 29.88 1012 5 8.04672 0 0
10:55 am 10:55 Cloudy 50 10 48 9 94 94 WNW 3 6 29.88 1012 7 11.265408 0 0
11:15 am 11:15 Cloudy 50 10 50 10 100 100 Calm 29.88 1012 7 11.265408 0 0
11:35 am 11:35 Cloudy with Mist and Fog 52 11 50 10 94 94 Calm 29.88 1012 5 8.04672 0 0
11:55 am 11:55 Cloudy 52 11 50 10 94 94 Calm 29.88 1012 7 11.265408 0 0
12:55 pm 12:55 Cloudy 55 13 52 11 88 88 WNW 6 9 29.88 1012 10 16.09344 0 0
1:15 pm 13:15 Cloudy 55 13 52 11 88 88 W 5 7 29.88 1012 10 16.09344 0 0
1:35 pm 13:35 Cloudy 55 13 52 11 88 88 WNW 6 9 29.85 1011 10 16.09344 0 0
1:55 pm 13:55 Cloudy 55 13 52 11 88 88 W 3 6 29.85 1011 10 16.09344 0 0
2:15 pm 14:15 Cloudy 57 14 52 11 82 82 WNW 5 7 29.83 1010 10 16.09344 0 0
2:35 pm 14:35 Cloudy 59 15 54 12 82 82 WNW 5 7 29.83 1010 10 16.09344 0 0
2:55 pm 14:55 Cloudy 59 15 54 12 82 82 WNW 6 9 29.83 1010 10 16.09344 0 0
3:15 pm 15:15 Mostly Cloudy 61 16 55 13 83 83 WNW 7 11 29.83 1010 10 16.09344 0 0
3:35 pm 15:35 Mostly Cloudy 61 16 54 12 77 77 W 6 9 29.83 1010 10 16.09344 0 0
3:55 pm 15:55 Cloudy 61 16 54 12 77 77 W 6 9 29.83 1010 10 16.09344 0 0
4:15 pm 16:15 Cloudy 61 16 54 12 77 77 W 6 9 29.83 1010 10 16.09344 0 0
4:35 pm 16:35 Cloudy 61 16 54 12 77 77 WNW 6 9 29.83 1010 10 16.09344 0 0
4:55 pm 16:55 Cloudy 61 16 55 13 83 83 WNW 6 9 29.83 1010 10 16.09344 0 0
5:15 pm 17:15 Cloudy 61 16 54 12 77 77 NW 5 7 29.83 1010 10 16.09344 0 0
5:35 pm 17:35 Partly Cloudy 63 17 55 13 77 77 NW 5 7 29.83 1010 10 16.09344 0 0
5:55 pm 17:55 Sunny 63 17 54 12 73 73 N 3 6 29.83 1010 10 16.09344 0 0
6:15 pm 18:15 Sunny 63 17 54 12 73 73 Calm 29.83 1010 10 16.09344 0 0
6:35 pm 18:35 Sunny 63 17 54 12 73 73 Calm 29.83 1010 10 16.09344 0 0
6:55 pm 18:55 Sunny 61 16 54 12 77 77 Calm 29.83 1010 10 16.09344 0 0
7:15 pm 19:15 Sunny 61 16 54 12 77 77 Calm 29.83 1010 10 16.09344 0 0
7:35 pm 19:35 Clear 59 15 54 12 82 82 Calm 29.85 1011 10 16.09344 0 0
7:55 pm 19:55 Clear 59 15 54 12 82 82 SSW 6 9 29.85 1011 10 16.09344 0 0
8:15 pm 20:15 Clear 55 13 54 12 94 94 Calm 29.85 1011 10 16.09344 0 0
8:35 pm 20:35 Clear 55 13 54 12 94 94 Calm 29.85 1011 10 16.09344 0 0
8:55 pm 20:55 Clear 54 12 54 12 100 100 Calm 29.88 1012 10 16.09344 0 0
9:15 pm 21:15 Clear 52 11 52 11 100 100 Calm 29.88 1012 10 16.09344 0 0
9:35 pm 21:35 Clear 54 12 54 12 100 100 Calm 29.88 1012 10 16.09344 0 0
9:55 pm 21:55 Clear 50 10 50 10 100 100 W 3 6 29.88 1012 10 16.09344 0 0
10:15 pm 22:15 Clear 52 11 52 11 100 100 Calm 29.88 1012 10 16.09344 0 0
10:35 pm 22:35 Clear 50 10 50 10 100 100 Calm 29.88 1012 10 16.09344 0 0
10:55 pm 22:55 Clear 48 9 48 9 100 100 W 3 6 29.88 1012 10 16.09344 0 0
11:15 pm 23:15 Clear 50 10 50 10 100 100 W 3 6 29.88 1012 10 16.09344 0 0
11:35 pm 23:35 Clear with Mist and Fog 48 9 48 9 100 100 WNW 3 6 29.88 1012 5 8.04672 0 0
11:55 pm 23:55 Clear 48 9 48 9 100 100 Calm 29.88 1012 10 16.09344 0 0

Powered by AerisWeather